TimeCDT,TemperatureF,Dew PointF,Humidity,Sea Level PressureIn,VisibilityMPH,Wind Direction,Wind SpeedMPH,Gust SpeedMPH,PrecipitationIn,Events,Conditions,WindDirDegrees,DateUTC
12:15 AM,68.9,56.8,65,29.66,10.0,SE,25.3,33.4,N/A,,Clear,140,2013-05-01 05:15:00
12:35 AM,68.0,57.0,68,29.67,10.0,SE,21.9,31.1,N/A,,Clear,140,2013-05-01 05:35:00
12:55 AM,67.1,56.8,70,29.67,10.0,SE,23.0,32.2,N/A,,Clear,140,2013-05-01 05:55:00
1:15 AM,66.7,56.7,70,29.67,10.0,SSE,24.2,34.5,N/A,,Clear,150,2013-05-01 06:15:00
1:35 AM,66.2,56.1,70,29.67,10.0,SSE,23.0,29.9,N/A,,Clear,150,2013-05-01 06:35:00
2:15 AM,65.1,55.4,71,29.67,10.0,SSE,20.7,29.9,N/A,,Clear,150,2013-05-01 07:15:00
2:35 AM,64.6,55.4,72,29.67,10.0,SSE,23.0,31.1,N/A,,Clear,160,2013-05-01 07:35:00
3:15 AM,63.9,55.6,74,29.67,10.0,SSE,23.0,29.9,N/A,,Clear,160,2013-05-01 08:15:00
3:35 AM,63.7,55.6,75,29.67,10.0,SSE,19.6,29.9,N/A,,Clear,160,2013-05-01 08:35:00
3:55 AM,63.3,55.6,76,29.67,10.0,SSE,18.4,24.2,N/A,,Clear,160,2013-05-01 08:55:00
4:55 AM,61.9,55.4,79,29.70,10.0,South,12.7,-,N/A,,Clear,170,2013-05-01 09:55:00
5:15 AM,61.2,55.2,81,29.70,10.0,South,13.8,-,N/A,,Clear,180,2013-05-01 10:15:00
5:35 AM,61.0,55.4,82,29.72,10.0,South,13.8,-,N/A,,Clear,190,2013-05-01 10:35:00
5:55 AM,60.3,55.2,83,29.74,10.0,WSW,13.8,-,N/A,,Clear,240,2013-05-01 10:55:00
6:15 AM,59.4,54.5,84,29.75,10.0,SW,12.7,-,N/A,,Clear,230,2013-05-01 11:15:00
6:35 AM,57.0,47.1,69,29.76,10.0,SW,9.2,-,N/A,,Clear,220,2013-05-01 11:35:00
6:55 AM,54.9,45.9,72,29.76,10.0,SSW,8.1,-,N/A,,Clear,200,2013-05-01 11:55:00
7:15 AM,54.1,46.4,75,29.78,10.0,SSW,6.9,-,N/A,,Clear,200,2013-05-01 12:15:00
7:35 AM,54.3,46.9,76,29.78,10.0,West,4.6,-,N/A,,Clear,260,2013-05-01 12:35:00
7:55 AM,55.4,48.0,76,29.81,10.0,NNW,17.3,-,N/A,,Clear,330,2013-05-01 12:55:00
8:15 AM,52.7,43.0,70,29.84,7.0,North,33.4,43.7,N/A,,Clear,350,2013-05-01 13:15:00
8:55 AM,50.0,41.2,72,29.90,10.0,North,39.1,48.3,N/A,,Overcast,360,2013-05-01 13:55:00
10:15 AM,47.1,41.0,79,29.98,10.0,North,31.1,40.3,N/A,,Overcast,360,2013-05-01 15:15:00
1:55 PM,45.3,39.4,80,30.10,10.0,North,28.8,38.0,N/A,,Overcast,360,2013-05-01 18:55:00
2:35 PM,44.6,38.3,79,30.10,7.0,North,33.4,42.6,N/A,,Overcast,360,2013-05-01 19:35:00
2:55 PM,44.6,37.8,77,30.11,10.0,North,33.4,39.1,N/A,,Overcast,360,2013-05-01 19:55:00
3:15 PM,43.5,36.9,77,30.13,10.0,North,31.1,40.3,N/A,,Overcast,360,2013-05-01 20:15:00
3:35 PM,43.7,36.1,75,30.14,10.0,North,31.1,40.3,N/A,,Overcast,360,2013-05-01 20:35:00
4:35 PM,43.0,36.1,77,30.14,10.0,North,31.1,39.1,N/A,,Overcast,360,2013-05-01 21:35:00
5:55 PM,41.2,37.6,87,30.18,3.0,North,25.3,31.1,N/A,,Overcast,360,2013-05-01 22:55:00
6:15 PM,40.1,37.4,90,30.18,3.0,North,27.6,35.7,N/A,,Overcast,10,2013-05-01 23:15:00
6:35 PM,39.6,37.0,91,30.19,3.0,North,23.0,34.5,N/A,,Overcast,10,2013-05-01 23:35:00
6:55 PM,39.2,36.7,91,30.21,4.0,North,23.0,34.5,N/A,,Overcast,10,2013-05-01 23:55:00
7:15 PM,38.7,35.8,89,30.22,5.0,North,27.6,34.5,N/A,,Overcast,360,2013-05-02 00:15:00
7:35 PM,37.6,35.1,91,30.24,3.0,North,28.8,36.8,N/A,,Overcast,360,2013-05-02 00:35:00
7:55 PM,37.4,35.1,91,30.25,2.0,North,28.8,39.1,N/A,,Overcast,360,2013-05-02 00:55:00
8:35 PM,37.0,35.2,93,30.26,3.0,North,29.9,36.8,N/A,,Overcast,360,2013-05-02 01:35:00
8:55 PM,36.9,35.1,93,30.27,5.0,North,28.8,38.0,N/A,,Overcast,10,2013-05-02 01:55:00
9:35 PM,35.6,34.0,94,30.30,5.0,North,27.6,42.6,N/A,,Overcast,360,2013-05-02 02:35:00
9:55 PM,35.1,33.1,92,30.33,5.0,North,26.5,39.1,N/A,,Overcast,360,2013-05-02 02:55:00
10:15 PM,34.7,32.9,93,30.33,5.0,North,28.8,38.0,N/A,,Overcast,360,2013-05-02 03:15:00
10:35 PM,34.2,32.2,92,30.36,4.0,North,32.2,44.9,N/A,,Overcast,360,2013-05-02 03:35:00
10:55 PM,34.0,32.2,93,30.36,3.0,North,31.1,47.2,N/A,,Overcast,360,2013-05-02 03:55:00
11:15 PM,33.8,32.4,94,30.37,4.0,North,24.2,35.7,N/A,,Overcast,360,2013-05-02 04:15:00
11:35 PM,34.3,32.9,94,30.37,3.0,North,29.9,46.0,N/A,,Overcast,10,2013-05-02 04:35:00
11:55 PM,33.6,32.2,94,30.38,3.0,North,25.3,35.7,N/A,,Overcast,360,2013-05-02 04:55:00